Hourly Weather Pervomaisk

Today, 21 September, Monday

Time Temperature Precipitation Wind Pressure Humidity
00:00 +13°C° 0 mm 2 mps 759 mmHg 44%
01:00 +13°C° 0 mm 2 mps 759 mmHg 46%
02:00 +12°C° 0 mm 2 mps 759 mmHg 48%
03:00 +12°C° 0 mm 2 mps 759 mmHg 50%
04:00 +10°C° 0 mm 2 mps 759 mmHg 52%
05:00 +10°C° 0 mm 2 mps 759 mmHg 54%
06:00 +13°C° 0 mm 2 mps 759 mmHg 49%
07:00 +14°C° 0 mm 2 mps 759 mmHg 45%
08:00 +16°C° 0 mm 1 mps 760 mmHg 40%
09:00 +18°C° 0 mm 2 mps 760 mmHg 36%
10:00 +20°C° 0 mm 2 mps 759 mmHg 33%
11:00 +21°C° 0 mm 2 mps 759 mmHg 29%
12:00 +23°C° 0 mm 2 mps 759 mmHg 27%
13:00 +24°C° 0 mm 2 mps 759 mmHg 25%
14:00 +25°C° 0 mm 2 mps 759 mmHg 23%
15:00 +24°C° 0 mm 1 mps 758 mmHg 25%
16:00 +24°C° 0 mm 1 mps 758 mmHg 26%
17:00 +24°C° 0 mm 1 mps 758 mmHg 27%
18:00 +21°C° 0 mm 1 mps 758 mmHg 30%
19:00 +19°C° 0 mm 1 mps 758 mmHg 32%
20:00 +16°C° 0 mm 1 mps 758 mmHg 35%
21:00 +16°C° 0 mm 1 mps 758 mmHg 36%
22:00 +15°C° 0 mm 1 mps 758 mmHg 38%
23:00 +15°C° 0 mm 1 mps 758 mmHg 39%

Tomorrow, 22 September, Tuesday

Time Temperature Precipitation Wind Pressure Humidity
00:00 +14°C° 0 mm 1 mps 759 mmHg 40%
01:00 +14°C° 0 mm 1 mps 759 mmHg 40%
02:00 +13°C° 0 mm 1 mps 759 mmHg 41%
03:00 +13°C° 0 mm 1 mps 759 mmHg 42%
04:00 +12°C° 0 mm 1 mps 759 mmHg 42%
05:00 +12°C° 0 mm 1 mps 759 mmHg 43%
06:00 +14°C° 0 mm 1 mps 759 mmHg 39%
07:00 +16°C° 0 mm 1 mps 759 mmHg 35%
08:00 +19°C° 0 mm 1 mps 759 mmHg 31%
09:00 +20°C° 0 mm 2 mps 759 mmHg 28%
10:00 +23°C° 0 mm 2 mps 759 mmHg 25%
11:00 +25°C° 0 mm 3 mps 759 mmHg 21%
12:00 +25°C° 0 mm 3 mps 759 mmHg 20%
13:00 +26°C° 0 mm 3 mps 758 mmHg 18%
14:00 +27°C° 0 mm 3 mps 758 mmHg 17%
15:00 +26°C° 0 mm 2 mps 757 mmHg 18%
16:00 +26°C° 0 mm 2 mps 757 mmHg 20%
17:00 +25°C° 0 mm 1 mps 757 mmHg 21%
18:00 +23°C° 0 mm 2 mps 757 mmHg 23%
19:00 +20°C° 0 mm 2 mps 757 mmHg 25%
20:00 +18°C° 0 mm 2 mps 757 mmHg 28%
21:00 +17°C° 0 mm 2 mps 757 mmHg 29%
22:00 +16°C° 0 mm 2 mps 757 mmHg 31%
23:00 +15°C° 0 mm 2 mps 756 mmHg 33%

Day after tomorrow, 23 September, Wednesday

Time Temperature Precipitation Wind Pressure Humidity
00:00 +14°C° 0 mm 1 mps 756 mmHg 34%
01:00 +14°C° 0 mm 1 mps 757 mmHg 35%
02:00 +13°C° 0 mm 1 mps 757 mmHg 36%
03:00 +13°C° 0 mm 1 mps 756 mmHg 37%
04:00 +13°C° 0 mm 2 mps 756 mmHg 38%
05:00 +12°C° 0 mm 2 mps 756 mmHg 39%
06:00 +14°C° 0 mm 2 mps 756 mmHg 36%
07:00 +16°C° 0 mm 3 mps 756 mmHg 32%
08:00 +18°C° 0 mm 3 mps 756 mmHg 29%
09:00 +20°C° 0 mm 4 mps 756 mmHg 26%
10:00 +23°C° 0 mm 4 mps 755 mmHg 23%
11:00 +26°C° 0 mm 5 mps 755 mmHg 20%
12:00 +27°C° 0 mm 5 mps 755 mmHg 20%
13:00 +28°C° 0 mm 5 mps 754 mmHg 20%
14:00 +29°C° 0 mm 5 mps 754 mmHg 19%
15:00 +28°C° 0 mm 4 mps 753 mmHg 22%
16:00 +27°C° 0 mm 3 mps 753 mmHg 25%
17:00 +26°C° 0 mm 3 mps 752 mmHg 27%
18:00 +24°C° 0 mm 2 mps 753 mmHg 34%
19:00 +20°C° 0 mm 2 mps 753 mmHg 40%
20:00 +19°C° 0 mm 1 mps 753 mmHg 47%
21:00 +17°C° 0 mm 2 mps 753 mmHg 49%
22:00 +17°C° 0 mm 2 mps 753 mmHg 52%
23:00 +16°C° 0 mm 2 mps 753 mmHg 54%

24 September, Thursday

Time Temperature Precipitation Wind Pressure Humidity
00:00 +16°C° 0 mm 1 mps 753 mmHg 59%
01:00 +15°C° 0 mm 1 mps 753 mmHg 64%
02:00 +15°C° 0 mm 1 mps 753 mmHg 69%
03:00 +14°C° 0 mm 1 mps 753 mmHg 71%
04:00 +14°C° 0 mm 1 mps 752 mmHg 73%
05:00 +14°C° 0 mm 1 mps 752 mmHg 75%
06:00 +16°C° 0 mm 2 mps 752 mmHg 67%
07:00 +17°C° 0 mm 2 mps 752 mmHg 60%
08:00 +19°C° 0 mm 2 mps 753 mmHg 53%
09:00 +21°C° 0 mm 3 mps 752 mmHg 46%
10:00 +24°C° 0 mm 3 mps 752 mmHg 39%
11:00 +26°C° 0 mm 3 mps 752 mmHg 31%
12:00 +27°C° 0 mm 3 mps 752 mmHg 29%
13:00 +28°C° 0 mm 3 mps 752 mmHg 27%
14:00 +29°C° 0 mm 3 mps 751 mmHg 24%
15:00 +28°C° 0 mm 2 mps 751 mmHg 26%
16:00 +27°C° 0 mm 2 mps 751 mmHg 27%
17:00 +27°C° 0 mm 1 mps 751 mmHg 29%
18:00 +25°C° 0 mm 1 mps 751 mmHg 32%
19:00 +23°C° 0 mm 1 mps 751 mmHg 36%
20:00 +21°C° 0 mm 1 mps 751 mmHg 39%
21:00 +20°C° 0 mm 1 mps 751 mmHg 42%
22:00 +20°C° 0 mm 1 mps 752 mmHg 45%
23:00 +18°C° 0 mm 2 mps 752 mmHg 47%

25 September, Friday

Time Temperature Precipitation Wind Pressure Humidity
00:00 +19°C° 0 mm 1 mps 751 mmHg 50%
01:00 +18°C° 0 mm 1 mps 751 mmHg 53%
02:00 +18°C° 0 mm 1 mps 751 mmHg 56%
03:00 +18°C° 0 mm 1 mps 751 mmHg 57%
04:00 +16°C° 0 mm 1 mps 751 mmHg 58%
05:00 +16°C° 0 mm 1 mps 751 mmHg 59%
06:00 +18°C° 0 mm 1 mps 751 mmHg 55%
07:00 +19°C° 0 mm 2 mps 751 mmHg 51%
08:00 +21°C° 0 mm 3 mps 751 mmHg 48%
09:00 +24°C° 0 mm 3 mps 751 mmHg 42%
10:00 +25°C° 0 mm 3 mps 751 mmHg 36%
11:00 +27°C° 0 mm 3 mps 751 mmHg 31%
12:00 +28°C° 0 mm 3 mps 751 mmHg 29%
13:00 +29°C° 0 mm 3 mps 750 mmHg 27%
14:00 +29°C° 0 mm 3 mps 750 mmHg 25%
15:00 +29°C° 0 mm 3 mps 749 mmHg 27%
16:00 +28°C° 0 mm 2 mps 749 mmHg 29%
17:00 +27°C° 0 mm 2 mps 749 mmHg 31%
18:00 +25°C° 0 mm 2 mps 749 mmHg 35%
19:00 +23°C° 0 mm 2 mps 749 mmHg 40%
20:00 +20°C° 0 mm 2 mps 749 mmHg 44%
21:00 +20°C° 0 mm 2 mps 749 mmHg 47%
22:00 +19°C° 0 mm 2 mps 749 mmHg 51%
23:00 +18°C° 0 mm 2 mps 749 mmHg 54%

26 September, Saturday

Time Temperature Precipitation Wind Pressure Humidity
00:00 +18°C° 0 mm 2 mps 749 mmHg 58%
01:00 +17°C° 0 mm 2 mps 749 mmHg 62%
02:00 +17°C° 0 mm 2 mps 749 mmHg 66%
03:00 +17°C° 0 mm 2 mps 749 mmHg 70%
04:00 +16°C° 0 mm 2 mps 749 mmHg 75%
05:00 +16°C° 0 mm 2 mps 748 mmHg 79%
06:00 +18°C° 0 mm 3 mps 749 mmHg 74%
07:00 +19°C° 0 mm 3 mps 749 mmHg 68%
08:00 +21°C° 0 mm 4 mps 749 mmHg 62%
09:00 +23°C° 0 mm 4 mps 748 mmHg 55%
10:00 +26°C° 0 mm 5 mps 748 mmHg 49%
11:00 +28°C° 0 mm 6 mps 748 mmHg 42%
12:00 +29°C° 0 mm 6 mps 748 mmHg 38%
13:00 +29°C° 0 mm 6 mps 748 mmHg 35%
14:00 +30°C° 0 mm 6 mps 747 mmHg 31%
15:00 +29°C° 0 mm 6 mps 747 mmHg 34%
16:00 +28°C° 0 mm 5 mps 747 mmHg 36%
17:00 +28°C° 0 mm 5 mps 747 mmHg 39%
18:00 +25°C° 0 mm 5 mps 747 mmHg 46%
19:00 +22°C° 0 mm 4 mps 747 mmHg 53%
20:00 +20°C° 0 mm 3 mps 748 mmHg 61%
21:00 +19°C° 0 mm 4 mps 748 mmHg 65%
22:00 +18°C° 0 mm 4 mps 748 mmHg 70%
23:00 +18°C° 0 mm 4 mps 748 mmHg 75%
Show more